Location: Montreal
(45.5000°N, 73.5833°W)
Time: 05:15:10
(UTC-05:00)

N. Korean satellite - Pass Details

Date: 11 October 2017
Orbit: 461 x 513 km, 97.2° (Epoch: 14 December)

Event Time Altitude Azimuth Distance (km) Brightness Sun altitude
Rises 19:02:23 0° 173° (S) 2,557 10.2 -9.0°
Reaches altitude 10° 19:04:29 10° 176° (S) 1,671 9.3 -9.4°
Maximum altitude 19:08:03 65° 259° (W) 534 7.0 -10.0°
Drops below altitude 10° 19:11:35 10° 342° (NNW) 1,656 9.5 -10.6°
Sets 19:13:39 0° 345° (NNW) 2,531 10.4 -11.0°
